Flag for Canada Weather past 2 weeks in Owen Sound, Ontario, Canada

48 °F

Passing clouds.

Feels Like: 46 °F
Forecast: 40 / 58 °F
Wind: 6 mph from Northeast

Location: Wiarton

Current Time: Oct 10, 2015 at 12:51:08 AM

Latest Report: Oct 10, 2015 at 12:00 AM

Visibility: 15 mi

Pressure: 30.15 "Hg

Humidity: 82%

Dew point: 43 °F

Location of Owen SoundLocation

Historic Weather in Owen Sound — Graph


Owen Sound temperature yesterday

Maximum temperature yesterday: 57 °F (at 6:00 AM)
Minimum temperature yesterday: 41 °F (at 10:00 PM)
Average temperature yesterday: 52 °F

Past Weeks' High & Low Weather Summary

High75 °F (Sep 28, 4:00 PM)100% (Oct 4, 4:00 AM)30.54 "Hg (Oct 4, 4:00 AM)
Low39 °F (Oct 8, 2:00 AM)44% (Oct 2, 5:00 PM)29.76 "Hg (Oct 9, 3:49 AM)
Average55 °F78%30.21 "Hg
* Reported Sep 24 11:00 PM — Oct 9 11:00 PM, Owen Sound, Weather by CustomWeather, © 2015

Note: Actual official high and low records may vary slightly from our data, if they occured in-between our weather recording intervals... More about our weather records


Owen Sound weather history for previous 24 hours

Time TempWeatherWind HumidityBarometerVisibility
11:00 PM
Fri, Oct 9
46 °FPassing clouds.No wind87%30.13 "Hg15 mi
10:00 PM41 °FPassing clouds.No wind93%30.11 "Hg15 mi
9:00 PM46 °FPassing clouds.2 mph82%30.10 "Hg15 mi
8:00 PM50 °FPassing clouds.5 mph82%30.09 "Hg15 mi
7:00 PM52 °FPassing clouds.7 mph72%30.06 "Hg15 mi
6:00 PM54 °FPassing clouds.5 mph67%30.05 "Hg15 mi
5:00 PM54 °FPartly sunny.5 mph67%30.03 "Hg15 mi
4:00 PM52 °FPartly sunny.7 mph82%30.00 "Hg15 mi
3:00 PM54 °FBroken clouds.7 mph77%29.98 "Hg15 mi
2:00 PM54 °FOvercast.5 mph77%29.97 "Hg15 mi
1:00 PM52 °FOvercast.5 mph82%29.95 "Hg15 mi
12:00 PM52 °FLow clouds.5 mph88%29.93 "Hg15 mi
11:00 AM50 °FLow clouds.8 mph88%29.90 "Hg15 mi
10:00 AM52 °FLow clouds.8 mph88%29.88 "Hg10 mi
9:00 AM52 °FLow clouds.10 mph94%29.84 "Hg10 mi
8:00 AM55 °FLow clouds.7 mph94%29.80 "Hg10 mi
7:00 AM55 °FFog.9 mph100%29.78 "Hg4 mi
6:00 AM57 °FFog.10 mph94%29.76 "Hg4 mi
5:47 AM55 °FFog.9 mph100%29.76 "Hg4 mi
5:00 AM55 °FDrizzle. Fog.10 mph100%29.76 "Hg1 mi
4:00 AM55 °FDrizzle. Fog.7 mph94%29.76 "Hg1 mi
3:49 AM55 °FDrizzle. Fog.10 mph94%29.76 "Hg1 mi
3:00 AM54 °FOvercast.13 mph100%29.77 "Hg8 mi
2:50 AM54 °FOvercast.12 mph100%29.77 "Hg8 mi
2:00 AM54 °FOvercast.13 mph94%29.77 "Hg10 mi
1:00 AM54 °FOvercast.16 mph94%29.80 "Hg10 mi
12:00 AM54 °FOvercast.16 mph94%29.82 "Hg10 mi
Weather by CustomWeather, © 2015

See weather overviewHow to use our weather pages